Friday Harbor, WA

4:47 AM PST on January 24, 2018 (GMT -0800)
Friday Harbor

Weather History for KFHR - August, 2012

Change the Weather History Date:

Wednesday, August 1, 2012

  Actual Average Record
Temperature  
Mean Temperature 55 °F -  
Max Temperature 66 °F 70 °F 84 °F (2015)
Min Temperature 46 °F 48 °F 45 °F (2002)
Degree Days  
Heating Degree Days 10    
Growing Degree Days 5 (Base 50)    
Moisture  
Dew Point 49 °F    
Average Humidity 82    
Maximum Humidity 97    
Minimum Humidity 63    
Precipitation  
Precipitation 0.00 in - - ()
Sea Level Pressure  
Sea Level Pressure 30.18 in    
Wind  
Wind Speed 3 mph (South)    
Max Wind Speed 10 mph    
Max Gust Speed 20 mph    
Visibility 10 miles    
Events      
Averages and records for this station are not official NWS values.
T = Trace of Precipitation, MM = Missing Value Source: NWS Daily Summary

Daily Weather History Graph

Daily Weather History Graph

Search for Another Location

Airport or City:

Trip Planner

Search our weather history database for the weather conditions in past years. The results will help you decide how hot, cold, wet, or windy it might be!

Date:

Astronomy

Aug. 01, 2012 Rise Set
Actual Time 5:47 AM PDT 8:48 PM PDT
Civil Twilight 5:10 AM PDT 9:25 PM PDT
Nautical Twilight 4:22 AM PDT 10:12 PM PDT
Astronomical Twilight 3:23 AM PDT 11:10 PM PDT
Moon 8:15 PM PDT (8/1) 5:25 AM PDT (8/1)
Length of Visible Light 16h 14m
Length of Day
15h 01m
Full, 100% of the Moon is Illuminated
Aug 1
Full
Aug 1
Full
Aug 9
Last Quarter
Aug 17
New
Aug 24
First Quarter

Hourly Weather History & Observations

Time (PDT) Temp. Dew Point Humidity Pressure Visibility Wind Dir Wind Speed Gust Speed Precip Events Conditions
12:53 AM 48.9 °F 46.9 °F 93% 30.17 in 10.0 mi Calm Calm - N/A   Clear
1:53 AM 50.0 °F 46.9 °F 89% 30.17 in 10.0 mi Calm Calm - N/A   Clear
2:53 AM 46.9 °F 46.0 °F 97% 30.17 in 10.0 mi Calm Calm - N/A   Clear
3:53 AM 46.9 °F 46.0 °F 97% 30.17 in 10.0 mi Calm Calm - N/A   Clear
4:53 AM 46.0 °F 45.0 °F 96% 30.18 in 9.0 mi Calm Calm - N/A   Clear
5:53 AM 46.9 °F 46.0 °F 97% 30.18 in 5.0 mi Calm Calm - N/A   Clear
6:53 AM 51.1 °F 50.0 °F 96% 30.19 in 8.0 mi Calm Calm - N/A   Clear
7:53 AM 54.0 °F 51.1 °F 90% 30.20 in 9.0 mi East 3.5 mph - N/A   Clear
8:53 AM 55.0 °F 51.1 °F 86% 30.22 in 10.0 mi ESE 4.6 mph - N/A   Clear
9:53 AM 57.9 °F 52.0 °F 81% 30.22 in 10.0 mi East 4.6 mph - N/A   Clear
10:53 AM 62.1 °F 53.1 °F 72% 30.22 in 10.0 mi ESE 3.5 mph - N/A   Clear
11:53 AM 64.0 °F 54.0 °F 70% 30.22 in 10.0 mi SSW 8.1 mph - N/A   Clear
12:53 PM 63.0 °F 52.0 °F 67% 30.22 in 10.0 mi SW 9.2 mph - N/A   Clear
1:53 PM 63.0 °F 52.0 °F 67% 30.21 in 10.0 mi SSW 10.4 mph - N/A   Clear
3:53 PM 63.0 °F 51.1 °F 65% 30.20 in 10.0 mi SW 9.2 mph 19.6 mph N/A   Clear
4:53 PM 64.0 °F 51.1 °F 63% 30.18 in 10.0 mi SSW 9.2 mph - N/A   Clear
5:53 PM 62.1 °F 51.1 °F 67% 30.17 in 10.0 mi SSW 8.1 mph 16.1 mph N/A   Clear
6:53 PM 57.0 °F 48.9 °F 74% 30.16 in 10.0 mi SSW 6.9 mph - N/A   Clear
7:53 PM 55.9 °F 48.9 °F 77% 30.15 in 10.0 mi Variable 3.5 mph - N/A   Clear
8:53 PM 54.0 °F 48.0 °F 80% 30.15 in 10.0 mi East 4.6 mph - N/A   Clear
10:53 PM 52.0 °F 48.9 °F 89% 30.15 in 10.0 mi Calm Calm - N/A   Scattered Clouds
11:53 PM 54.0 °F 48.9 °F 83% 30.16 in 10.0 mi Calm Calm - N/A   Mostly Cloudy